Weather in Miyakitamak

Russia / Republic of Bashkortostan     53°47′01″N   54°44′34″E
temp.,
°C
wind,
m/s
gust,
m/s
humid.,
%
clouds,
%
prec.,
mm/h
press.,
hPa
HPBL,
m
25 february, thu
thu2523:00−24n5159126 0.0 1029343
02:00−27nnw339511 0.0 103032
05:00−29nnw229710 0.0 103219
08:00−30nw119810 0.0 103319
11:00−25s11915 0.0 103476
14:00−20ssw22860 0.0 1033263
17:00−20sw359228 0.0 1031260
20:00−24ssw359299 0.0 103092
26 february, fri
fri2623:00−22ssw41091100 0.0 1029276
02:00−21s51196100 0.2 1027353
05:00−22s51095100 0.3 1026369
08:00−22s4109499 0.1 1024327
11:00−20sse599299 0.1 1024384
14:00−17sse588998 0.0 1022487
17:00−17sse598999 0.0 1022484
20:00−21sse369467 0.0 1020105
27 february, sat
sat2723:00−19sse4109254 0.0 1018259
02:00−16sse61391100 0.0 1014420
05:00−13sse71494100 0.4 1010528
08:00−12sse71694100 3.1 1005573
11:00−10s81491100 4.4 1003504
14:00−6sse61094100 0.5 1002470
17:00−2s5995100 1.0 1002406
20:00−2ssw359696 0.5 1002122
28 february, sun
sun2823:00−1sw389695 0.7 1002397
02:00−1sw489499 0.1 1001397
05:00−2ssw3697100 0.1 1002174
08:00−4ssw369799 0.3 1001171
11:00−2sw359599 0.4 1002274
14:00−1sw4695100 0.1 1003467
17:00−1sw3594100 0.3 1004408
20:00−3sw2398100 0.2 100568
1 march, mon
mon123:00−3ssw2298100 0.6 100739
02:00−5nne2397100 0.6 100888
05:00−10ne249695 0.8 1009121
08:00−12nne249693 0.3 1011128
11:00−12nne249387 0.4 1013245
14:00−11nne349396 0.1 1015301
17:00−11nne359498 0.1 1016279
20:00−16n339692 0.0 101854